Wind_Speed
12 12 11 11 11 11 11 10 9 9 8 7 7 6 5 4 4 4 4 5 5 5 5 6 6 6 6 6 6 7 8 7 8 10 10 9 8 7 6 5 5 5 7 10 12 13 15 20 23 25 22 16 14 11 11 12 11 8 4 5 4 3 2 3 3 2 1 1 4 2 1 2 3 5 5 6 7 8 8 7 6 6 5 4 4 4 5 4
12 12 11 11 11 11 11 10 10 9 8 7 6 5 4 4 4 4 4 4 5 5 6 6 6 6 6 6 7 9 9 9 11 12 11 11 9 8 7 7 8 8 10 13 14 16 19 20 22 23 17 11 11 10 8 8 7 5 4 4 2 2 2 4 4 3 2 1 3 4 3 4 5 6 6 6 7 7 6 5 3 3 4 4 4 4 4 4
12 12 12 12 11 11 11 10 10 9 8 7 6 5 4 3 4 3 4 4 5 6 7 7 7 6 5 6 9 10 9 10 13 14 13 12 11 11 12 12 12 11 12 14 15 17 20 20 20 19 12 8 10 8 6 6 5 5 4 1 2 3 2 3 4 3 4 2 3 5 5 5 6 6 6 6 6 5 4 4 2 3 4 2 2 3 3 4
11 12 12 12 12 12 11 11 10 9 8 7 5 4 3 3 3 3 4 5 6 8 9 8 7 6 5 8 11 10 12 13 12 15 14 13 14 14 15 15 15 14 13 14 14 16 19 18 17 16 11 8 8 7 6 6 5 4 3 1 3 4 1 2 3 4 6 3 3 6 5 5 6 5 4 3 4 4 3 4 2 2 2 3 3 2 2 3
12 12 12 12 12 12 11 11 10 9 9 7 5 4 3 3 3 3 5 6 8 9 9 7 6 6 6 9 12 13 14 13 12 14 14 13 14 14 14 15 15 15 14 13 14 15 17 16 14 13 10 7 6 5 5 6 5 3 4 4 5 4 1 3 4 4 5 4 3 4 4 5 5 3 2 1 3 3 2 3 2 3 5 5 4 3 3 2
12 12 13 13 13 12 12 11 10 9 8 7 5 3 2 2 3 4 6 8 9 10 8 7 6 5 6 9 13 13 11 10 15 15 13 12 13 13 13 13 14 14 15 14 14 15 15 14 12 10 8 7 6 5 6 7 6 3 3 5 6 4 1 2 3 3 4 3 3 3 3 3 3 2 1 1 3 2 2 2 4 6 6 7 6 5 4 3
12 13 13 13 13 12 11 10 9 8 7 7 5 3 2 2 3 4 8 9 10 10 8 7 5 4 6 8 12 12 10 14 17 16 14 14 14 13 13 13 13 13 14 14 13 14 13 11 10 9 7 6 6 6 7 6 5 3 2 4 4 3 1 2 3 3 3 3 4 3 3 3 3 1 0 1 2 2 1 2 5 7 6 6 6 6 5 4
13 13 14 14 14 13 12 10 9 7 6 6 5 2 1 2 3 6 9 10 11 10 8 6 5 4 6 10 13 12 14 17 17 16 17 16 15 14 13 13 13 14 14 12 11 11 10 8 9 9 6 7 6 6 7 5 3 3 2 2 1 2 1 3 4 4 3 4 4 3 3 3 2 1 1 2 0 2 1 3 6 5 4 5 6 6 5 4
14 14 15 15 15 14 12 10 9 7 6 6 5 3 1 3 4 8 10 11 11 9 8 6 5 5 7 14 16 13 16 19 17 18 17 17 16 15 14 14 14 14 15 13 11 10 9 7 8 8 6 9 7 6 7 5 2 3 2 2 1 2 1 1 3 3 3 2 2 4 4 4 3 1 2 3 2 1 2 4 5 4 4 5 5 5 5 3
14 15 15 16 16 14 12 10 9 7 6 6 6 4 0 3 5 8 11 11 9 8 8 6 6 6 10 17 14 12 18 19 18 18 18 18 17 15 14 14 15 15 14 13 12 11 11 9 10 10 7 8 8 7 8 5 4 4 2 1 1 0 1 2 2 1 1 2 4 5 5 6 4 3 4 4 3 2 3 3 3 3 3 3 4 4 3 2
15 15 16 17 17 15 13 11 9 7 6 6 6 4 1 3 6 9 11 10 9 8 7 7 7 6 13 18 11 13 20 19 19 18 18 17 16 15 14 14 14 14 13 11 10 10 10 10 12 12 8 8 8 8 8 6 5 5 4 3 4 3 3 4 3 2 4 5 6 8 8 7 6 5 5 3 2 1 2 1 1 0 1 1 2 2 1 0
15 16 17 17 17 16 13 11 9 7 6 6 6 4 2 4 7 11 11 10 8 8 7 7 6 7 15 15 10 18 20 18 18 17 16 16 15 14 13 13 12 12 11 9 9 9 10 10 10 10 8 9 9 7 7 7 7 6 5 3 5 5 5 7 5 5 7 7 8 10 9 7 6 6 4 2 1 1 1 1 1 2 2 1 1 0 1 1
15 16 17 18 17 15 13 10 9 7 5 5 5 4 3 5 9 11 11 9 9 8 7 7 5 9 13 11 14 20 18 17 17 15 15 15 14 13 12 11 9 9 9 9 10 11 11 11 11 11 11 10 8 8 7 8 8 6 5 3 2 4 5 8 6 7 8 8 9 9 9 7 6 6 4 1 1 1 2 3 3 3 3 2 2 2 2 2
16 17 19 19 17 14 11 10 8 6 5 4 4 3 3 6 9 11 10 10 10 9 8 7 6 11 12 13 19 18 16 17 15 14 14 14 14 12 10 9 8 8 8 8 10 10 10 11 11 11 12 10 8 9 8 8 8 4 5 6 3 4 6 8 7 8 6 7 9 8 8 8 6 6 5 3 1 2 3 4 5 4 4 3 3 3 3 3
17 18 19 19 17 13 10 9 7 6 4 3 3 2 3 7 10 11 11 11 11 9 9 8 9 13 12 14 20 16 15 14 10 11 13 13 13 10 9 8 7 7 6 7 8 8 7 9 10 9 10 10 8 9 7 6 6 2 3 7 5 6 8 8 9 8 5 6 9 7 7 7 5 7 7 5 4 3 2 3 4 4 4 4 4 4 4 2
18 19 20 19 16 12 9 8 6 5 4 3 2 2 4 8 11 12 13 13 11 10 10 11 13 14 11 12 18 15 14 12 9 10 11 11 11 9 8 7 6 6 5 5 6 6 6 7 7 7 9 9 7 6 5 5 6 4 5 7 6 6 6 7 10 9 7 7 8 7 7 6 5 6 6 6 6 4 2 2 3 4 4 4 4 4 4 2
18 20 20 19 15 11 8 7 5 4 3 1 2 4 6 11 13 15 15 12 11 10 11 14 14 12 9 11 13 12 13 12 9 9 8 8 8 7 7 6 5 5 4 3 3 4 5 6 6 6 7 6 4 3 2 4 6 6 6 6 6 6 5 7 8 8 10 9 7 7 6 5 4 4 4 5 5 5 4 2 1 3 3 3 3 3 3 3
19 21 20 17 12 9 6 5 4 4 2 1 4 6 8 12 16 16 14 12 11 11 12 14 10 9 10 9 8 11 15 13 10 8 7 6 5 5 5 4 5 4 3 2 1 2 3 5 5 4 4 3 3 1 2 5 6 5 4 5 6 6 7 8 7 7 9 8 5 4 5 4 3 3 4 5 4 4 5 3 0 2 2 2 3 2 3 4
20 21 19 15 10 7 5 3 4 3 2 4 7 8 9 14 18 15 13 13 11 8 9 9 5 6 10 9 10 12 14 13 10 8 6 6 5 4 4 4 5 4 4 4 2 1 2 3 3 3 3 3 2 1 4 5 4 5 4 5 6 7 9 8 6 6 5 4 3 3 3 4 3 2 3 4 4 3 4 4 2 1 2 4 5 3 4 4
20 20 17 13 9 6 2 3 4 3 4 7 8 9 11 15 15 13 13 12 9 7 8 8 7 8 9 10 13 13 12 12 11 9 8 8 7 6 5 5 5 5 6 6 4 2 3 3 2 1 2 2 1 0 2 2 1 2 2 4 5 6 8 6 4 6 5 2 2 3 2 3 3 2 2 4 4 3 4 5 4 1 1 5 6 5 5 4
19 19 16 12 7 3 1 4 4 4 6 9 10 11 13 16 14 13 13 11 10 12 11 10 11 11 11 12 12 13 13 11 12 12 10 11 10 7 6 6 6 7 7 7 4 3 4 3 2 1 1 2 3 2 2 1 1 1 1 2 4 6 7 7 5 7 8 4 3 4 3 2 3 1 1 3 4 4 4 4 5 4 1 3 5 6 7 5
19 17 14 9 4 3 4 5 4 5 8 10 11 12 14 17 16 14 13 11 11 13 12 12 13 12 13 12 12 14 14 12 12 12 12 12 9 6 7 7 7 7 8 7 5 5 4 2 2 4 3 3 3 2 1 1 0 1 2 2 4 5 5 7 7 7 8 5 3 5 4 5 4 2 1 3 4 4 3 3 4 4 3 2 3 5 6 6
17 15 11 6 4 5 5 4 4 6 8 10 12 14 15 15 15 14 13 12 11 11 12 13 14 14 13 13 14 14 13 11 11 11 12 10 7 6 7 7 7 7 8 7 5 5 4 4 3 6 4 3 3 2 2 2 1 1 3 4 6 5 3 5 6 7 9 7 4 3 3 7 7 5 6 5 4 5 4 3 3 4 4 4 3 4 5 5
16 13 8 3 5 6 4 4 5 6 8 10 12 15 15 15 14 13 14 13 10 10 12 14 15 15 14 14 14 13 12 12 11 10 11 9 8 8 7 8 9 8 7 7 4 2 6 5 4 4 2 2 2 1 2 3 1 2 2 4 6 6 5 5 5 6 7 7 7 4 2 9 9 8 8 7 7 7 6 4 3 4 5 5 4 4 4 5
14 11 4 3 6 5 4 4 5 7 8 10 13 15 16 14 13 13 14 13 10 11 12 14 15 14 15 14 12 13 13 11 11 11 10 10 11 9 6 9 9 7 8 8 4 4 6 5 4 4 3 2 1 1 1 2 0 3 2 3 4 4 4 4 4 4 3 5 9 9 3 9 10 9 9 8 8 8 8 6 4 5 5 5 4 4 4 5
13 8 2 5 5 5 4 4 5 7 8 10 13 15 16 13 11 14 14 11 11 12 11 12 12 12 13 11 13 15 12 9 10 10 10 10 11 9 7 9 8 7 9 7 4 5 6 5 5 5 4 3 2 2 2 1 1 4 3 1 1 2 2 3 3 3 4 4 7 10 6 8 10 10 9 9 10 10 11 9 8 8 7 5 4 5 4 5
12 6 2 5 5 5 4 5 6 8 9 11 14 15 15 13 11 14 13 8 10 11 9 10 10 10 11 14 16 13 9 10 10 10 11 10 10 10 7 7 8 9 10 7 6 7 5 4 4 4 3 2 2 3 3 1 3 4 3 0 0 1 2 2 2 2 4 2 4 8 6 6 10 9 7 9 11 12 13 13 13 12 10 8 6 6 5 5
11 4 4 6 5 5 5 5 7 9 10 12 14 14 14 12 12 15 10 5 8 10 8 9 10 11 13 17 15 8 9 13 9 8 10 8 9 9 6 8 9 9 8 5 4 7 5 3 3 2 1 1 2 3 3 3 4 4 3 1 1 1 1 1 2 2 2 1 4 7 5 4 7 7 6 8 10 12 13 14 14 13 11 10 8 7 6 6
10 3 5 7 5 5 5 6 8 10 11 13 14 14 13 12 13 12 6 4 9 10 10 10 10 12 15 15 12 8 11 11 7 9 10 7 8 7 6 9 9 8 7 2 4 6 5 3 3 2 1 1 2 1 3 4 2 2 2 1 1 0 0 1 2 2 1 0 4 6 5 3 6 6 6 7 9 11 11 12 13 13 12 12 10 9 7 6
8 1 6 7 5 5 6 7 9 11 12 13 14 13 14 14 14 10 5 5 9 10 12 11 9 12 14 12 10 9 9 10 10 10 8 7 8 7 8 9 7 7 6 4 5 6 5 4 5 5 4 4 3 2 2 2 1 2 2 1 0 1 1 1 1 2 2 1 4 6 4 1 4 6 7 6 8 10 10 10 12 13 13 15 14 12 10 8
7 1 7 7 6 7 8 8 10 11 12 13 13 14 15 14 11 8 5 8 10 10 11 11 11 12 12 11 10 9 8 10 12 8 7 8 7 7 9 7 6 7 7 6 6 6 6 5 5 5 4 5 4 2 1 1 0 1 2 2 2 2 2 2 1 2 2 3 5 5 3 1 2 7 6 5 7 9 10 10 12 12 13 15 16 14 13 12
6 2 8 7 7 8 8 9 10 12 13 13 15 17 16 12 8 4 6 10 10 12 11 10 13 13 11 10 10 9 9 10 10 8 8 8 7 9 8 6 6 6 6 7 6 6 6 4 3 3 3 4 2 1 1 0 0 2 3 3 4 3 1 2 1 1 2 4 4 4 4 2 4 7 4 4 6 7 9 10 11 11 12 14 16 16 14 13
5 4 9 7 7 8 9 9 11 13 14 15 17 17 12 9 7 6 9 9 9 13 13 11 13 13 11 11 10 10 11 11 10 9 9 8 8 9 6 6 7 4 2 6 5 5 6 5 3 2 2 3 3 2 1 2 0 2 2 4 5 3 1 2 2 1 3 4 3 3 2 2 5 6 4 5 6 6 7 8 9 10 11 13 15 16 15 13
4 6 9 7 7 9 9 10 12 14 15 17 18 14 8 6 7 9 10 8 10 15 13 13 14 12 11 10 11 12 12 11 11 10 9 8 7 7 5 4 4 2 2 5 4 3 3 4 5 2 2 2 2 2 3 3 2 2 2 4 4 4 4 3 2 3 3 3 3 2 1 3 4 3 4 7 7 6 6 6 7 8 9 10 11 13 14 14
3 7 10 8 7 8 9 11 14 15 17 19 16 10 7 5 7 10 9 9 13 15 13 14 14 12 11 10 12 13 11 10 12 10 8 8 7 7 7 5 4 4 3 4 4 3 3 2 4 3 3 2 1 2 3 2 1 2 0 2 2 4 5 3 3 5 5 2 3 3 2 4 5 4 5 6 6 6 6 6 6 6 6 7 9 10 11 13
3 8 10 8 7 8 9 11 15 16 18 19 13 8 7 6 8 10 10 13 14 13 13 14 12 11 12 11 10 11 11 11 12 10 9 10 9 8 8 7 6 5 3 2 3 3 4 2 4 2 1 2 2 1 1 1 2 1 1 2 3 3 2 0 2 2 4 2 3 2 1 3 4 5 4 4 4 4 5 5 6 6 5 6 7 8 8 10
3 9 10 8 7 7 9 12 16 17 19 19 11 7 5 6 10 11 12 15 15 14 14 13 12 12 12 11 10 9 11 12 12 10 10 9 8 8 9 7 5 5 4 3 2 2 4 2 4 3 2 3 3 2 1 0 2 1 1 2 1 1 2 1 1 0 3 1 3 1 1 1 2 4 4 3 3 3 3 4 5 6 6 6 6 7 8 9
4 9 10 8 7 7 9 14 16 17 19 17 10 7 5 6 11 13 14 16 15 15 14 11 13 14 12 11 11 11 11 11 11 10 10 9 7 7 8 7 5 5 4 3 2 1 3 2 4 5 3 3 3 2 2 2 1 1 2 0 3 1 2 1 2 2 3 2 2 1 0 1 2 4 4 4 5 5 4 4 6 6 6 6 6 8 10 10
4 9 10 8 7 7 10 15 16 17 18 14 8 7 7 8 12 13 14 15 15 14 12 11 13 14 13 11 11 13 12 9 10 9 8 9 7 7 8 6 5 4 2 2 1 0 3 4 4 6 4 3 4 3 2 1 1 1 0 1 1 2 2 3 2 2 4 2 1 1 1 2 4 4 3 5 6 6 6 6 6 6 6 7 7 9 10 10
6 10 10 9 7 8 12 15 16 16 15 12 10 8 8 10 11 13 14 14 14 13 11 13 14 13 14 12 11 14 12 9 11 9 6 8 8 7 7 6 5 3 0 2 2 1 2 5 3 5 7 5 4 4 4 3 2 2 2 1 1 0 2 2 1 1 4 4 2 2 0 3 4 3 3 4 5 7 7 7 7 7 7 7 8 8 9 10
6 9 10 10 9 10 14 15 16 17 14 12 12 11 11 11 10 12 13 12 13 12 11 13 14 14 15 13 12 13 12 10 10 8 6 9 8 6 7 6 5 2 1 3 2 2 2 5 4 4 6 4 4 7 7 6 5 2 2 2 2 2 3 4 2 2 2 4 3 4 3 4 3 1 3 4 5 7 7 8 8 9 8 7 7 7 8 9
6 9 10 10 10 12 15 16 17 18 15 12 12 12 13 12 10 11 13 12 11 11 10 12 13 14 15 14 13 13 11 10 9 7 7 9 9 8 8 7 4 1 1 1 1 2 1 4 4 3 4 4 6 9 8 7 6 2 1 1 1 2 3 5 3 2 1 1 2 3 3 4 3 1 2 4 6 6 7 7 8 8 6 6 7 8 9 10
8 10 11 11 10 13 17 16 17 17 14 13 14 13 12 12 10 11 11 12 11 10 11 12 12 14 15 14 13 13 12 11 9 7 7 9 10 9 8 7 4 2 2 1 1 1 1 3 4 5 5 4 5 6 5 5 4 1 1 2 1 1 1 2 3 2 3 1 1 3 1 5 3 2 3 6 7 7 7 7 6 5 5 6 8 9 9 10
8 11 13 11 11 14 17 16 16 16 15 15 15 14 12 10 10 11 11 12 13 12 12 13 12 13 13 13 12 12 11 10 9 9 9 9 10 9 9 7 4 2 2 1 1 1 1 3 5 6 6 6 5 5 6 5 4 2 2 2 2 2 1 1 1 3 4 0 2 5 1 5 3 3 5 7 6 6 6 5 3 2 4 6 7 8 9 9
8 11 13 12 12 16 19 19 18 18 17 16 14 14 12 10 11 13 12 12 13 12 13 13 12 11 12 12 12 12 10 7 8 10 9 9 10 9 8 6 3 2 1 0 1 4 4 4 5 4 3 4 3 3 5 6 4 2 2 1 0 1 2 3 3 4 3 1 2 4 2 4 3 5 6 6 4 3 3 2 2 2 3 5 5 6 7 7
9 11 13 13 13 16 20 21 20 19 18 17 15 13 12 11 13 14 13 12 12 12 12 12 11 11 12 12 11 11 9 6 7 9 9 9 9 9 8 5 3 2 1 0 2 4 4 6 7 4 3 2 4 3 4 5 3 1 1 2 1 3 3 3 5 4 1 1 3 1 2 3 4 5 4 2 1 2 2 2 2 3 4 4 3 4 6 7
10 13 15 14 13 15 20 21 21 21 19 17 16 14 13 14 15 15 13 11 11 12 11 11 12 12 12 11 10 9 8 5 6 8 10 10 8 7 6 4 3 2 1 1 3 4 4 4 6 3 1 3 5 3 4 4 3 2 1 2 1 2 4 3 4 2 1 3 1 3 2 2 4 4 3 1 0 1 2 2 3 4 6 8 8 7 7 8
11 14 16 16 13 13 19 22 22 21 20 18 17 16 15 15 14 14 13 11 10 11 11 11 13 12 11 10 9 7 7 7 8 9 10 9 7 5 4 4 4 2 1 1 3 5 5 5 6 5 4 4 5 5 5 4 3 3 3 3 3 1 3 3 3 2 2 3 1 2 1 1 2 3 2 2 2 2 3 5 6 7 8 10 9 7 6 7
11 13 16 18 16 14 18 23 23 22 21 20 19 17 16 15 14 13 11 10 10 11 11 12 12 12 11 10 7 7 8 8 8 10 9 7 6 5 4 4 3 2 1 2 4 5 6 5 7 7 5 5 6 5 5 4 3 4 3 3 3 3 3 3 3 4 3 1 0 2 1 1 1 3 3 4 5 5 7 8 9 10 10 10 10 9 9 9
12 13 16 18 18 15 17 22 24 22 22 21 20 19 18 16 14 12 9 9 10 10 11 11 12 11 10 9 7 8 8 7 7 9 8 6 6 6 5 5 3 3 2 3 4 5 5 5 6 5 4 5 5 5 5 5 5 5 4 2 3 3 3 3 3 4 3 2 3 3 1 1 2 3 5 7 8 9 9 9 10 10 10 10 10 10 11 11
13 14 17 18 18 16 17 21 24 24 23 23 22 20 19 17 15 12 9 8 9 10 10 11 12 12 11 9 8 8 7 6 7 7 6 5 6 6 6 6 5 3 3 3 4 3 3 5 6 4 4 5 5 5 5 6 6 5 5 5 4 3 3 3 3 3 3 2 1 1 0 1 3 4 6 8 9 10 11 9 9 9 8 9 10 10 11 12
13 14 17 19 19 18 17 20 24 25 23 24 24 21 19 18 16 13 10 9 9 10 11 11 12 12 11 10 8 7 6 6 6 5 4 4 4 4 3 4 3 3 4 4 3 3 3 5 6 5 4 4 6 5 5 7 6 4 5 6 6 5 4 4 3 2 1 2 2 1 1 3 5 5 6 8 8 9 9 9 8 8 8 10 11 11 12 13
Wind_Direction
19 20 18 19 18 18 19 19 20 21 23 29 35 37 39 41 51 70 90 98 103 110 110 112 111 113 121 122 120 121 122 127 130 130 133 131 128 126 124 126 121 117 119 124 120 112 115 116 118 117 114 117 123 131 136 137 141 136 168 210 189 171 184 173 188 209 141 207 268 273 216 276 278 266 277 281 279 290 296 292 293 291 282 279 275 259 236 219
16 16 16 16 15 16 16 15 16 15 17 24 33 37 38 41 51 74 97 105 108 107 108 110 108 113 118 119 120 115 118 126 128 128 129 124 114 102 92 90 96 105 117 120 116 114 117 118 121 120 116 127 128 132 140 138 141 142 188 209 150 143 175 169 174 191 187 231 254 244 231 247 256 265 272 274 280 292 297 284 279 273 265 270 265 242 223 217
13 12 11 11 10 12 12 13 12 9 12 17 29 37 38 42 55 82 109 116 113 109 108 106 104 106 106 119 119 113 119 123 124 128 127 117 102 88 84 84 90 103 115 119 118 122 127 125 126 126 126 140 138 136 138 138 138 146 181 192 105 130 141 170 173 192 202 192 229 232 232 244 255 271 271 271 283 286 272 262 237 236 253 249 223 228 229 213
8 8 7 6 5 5 6 9 8 6 5 9 26 34 37 44 59 94 123 127 121 114 109 104 102 102 108 122 122 120 116 111 122 134 128 111 98 90 89 89 90 96 109 121 122 126 131 128 127 131 134 147 143 134 138 149 145 153 173 101 129 140 115 211 207 218 209 187 221 235 240 256 266 285 293 286 273 262 246 253 230 205 198 152 152 191 220 209
3 4 3 0 359 357 358 359 1 2 0 2 14 26 38 46 68 112 135 133 125 119 110 105 103 108 125 126 126 119 104 107 131 140 134 113 99 97 97 96 93 95 102 115 123 126 132 130 127 131 135 149 144 128 149 158 139 146 174 169 173 153 124 239 225 229 223 212 233 248 259 274 286 308 342 243 239 253 246 243 202 166 156 138 133 151 170 183
359 360 358 357 355 352 350 350 351 354 355 355 359 17 29 48 82 125 143 137 130 124 117 115 111 119 131 130 131 117 101 132 140 135 137 119 106 105 105 104 100 99 100 105 115 121 127 126 129 138 142 153 151 147 166 159 130 124 190 189 189 176 169 240 227 231 235 243 273 289 288 309 329 353 75 229 251 266 243 220 179 163 152 135 133 147 155 162
356 356 355 355 352 349 346 344 343 343 347 346 344 2 32 69 93 141 151 143 137 132 125 121 115 121 128 129 128 115 120 144 136 128 132 121 115 115 113 115 111 109 108 109 116 123 128 126 138 155 153 156 150 154 161 151 130 122 215 204 197 208 235 253 240 250 274 296 308 321 334 1 18 66 96 297 277 265 238 191 178 166 147 136 143 156 159 165
354 353 353 352 351 349 345 344 342 335 336 336 332 346 61 86 110 151 153 146 139 133 125 117 109 112 118 122 118 114 128 136 131 128 128 123 124 122 121 123 120 118 113 115 127 136 144 145 157 159 158 170 162 160 150 127 123 130 198 223 236 245 266 276 270 283 299 316 333 14 32 41 59 133 357 8 310 253 226 165 170 157 129 132 144 154 158 167
352 351 351 350 350 348 345 345 341 331 325 323 321 328 80 99 128 154 152 145 137 131 124 112 111 111 116 122 118 122 132 132 132 131 130 129 128 125 126 125 124 124 116 116 127 135 149 157 169 167 178 182 166 163 144 118 157 161 188 210 220 231 217 314 303 303 303 337 26 68 76 68 51 23 30 42 84 179 168 157 153 133 118 129 139 145 152 168
349 349 349 348 347 345 342 340 337 329 316 309 311 313 116 116 142 157 151 143 136 129 123 115 116 116 126 123 117 134 137 135 137 135 134 131 127 127 127 125 126 127 121 120 122 125 132 138 152 152 160 171 160 167 155 135 167 157 153 154 96 196 48 2 329 333 33 57 85 92 76 67 57 50 60 66 85 129 152 152 139 117 109 131 136 133 144 175
346 346 347 346 345 341 338 335 331 325 311 298 301 302 218 145 153 160 154 146 135 128 123 123 119 121 135 123 115 148 143 138 140 135 134 132 129 129 127 128 129 130 129 125 123 120 124 134 142 135 137 154 148 157 154 132 134 117 90 69 37 37 32 21 21 65 80 83 92 87 65 53 49 47 51 71 102 125 166 174 164 68 22 131 133 115 131 237
344 345 345 344 342 338 334 330 321 315 303 291 293 292 227 167 160 164 160 146 133 126 120 124 122 139 142 127 131 151 144 140 140 133 134 132 131 130 127 129 126 129 133 126 119 114 115 121 128 134 145 147 132 132 135 113 102 81 78 72 36 48 33 25 43 71 82 93 93 87 84 67 39 41 49 75 132 172 209 222 252 300 321 299 220 265 309 312
343 344 343 343 341 335 330 323 312 301 291 283 282 278 220 176 166 167 161 143 129 119 111 115 131 143 136 132 149 151 144 142 136 129 134 133 132 131 126 127 124 128 131 120 112 109 108 102 104 118 126 128 123 119 111 90 85 68 68 80 59 76 39 19 44 74 78 97 100 87 91 82 36 38 48 22 154 237 248 252 271 287 300 287 246 262 299 309
343 343 341 340 339 332 324 315 301 284 278 273 265 258 204 176 171 167 154 136 124 110 101 104 130 137 128 144 157 153 149 145 130 125 132 133 135 134 130 126 125 132 127 116 112 107 103 95 94 104 107 109 110 107 96 77 83 83 69 69 58 74 52 23 45 76 74 100 107 83 73 75 44 45 48 3 339 282 272 271 276 280 281 257 231 244 267 296
343 341 338 337 336 328 317 305 287 269 264 259 248 233 181 172 169 159 145 132 121 108 102 108 128 129 123 150 162 161 159 151 133 128 129 133 138 137 140 135 128 134 122 111 111 105 98 93 97 101 100 100 97 97 98 84 83 76 62 67 50 59 67 44 45 67 74 91 98 75 63 73 47 39 43 24 17 352 303 303 299 292 274 243 229 235 248 280
342 339 336 336 334 324 310 293 272 255 249 247 226 180 158 163 161 151 140 128 117 106 106 118 126 120 119 155 165 164 166 162 148 135 127 136 141 137 148 148 136 137 123 109 103 98 94 94 102 99 94 96 98 107 120 107 87 56 48 59 52 53 74 63 46 57 74 75 74 65 65 69 40 27 39 46 38 25 4 333 301 291 278 257 251 245 252 266
341 337 336 337 333 321 302 281 255 234 231 229 150 143 148 157 155 146 137 125 114 108 117 128 122 109 121 153 157 163 176 174 154 137 131 139 144 147 158 157 154 153 135 116 91 90 95 93 91 86 90 99 113 144 140 98 84 70 59 62 62 49 59 70 54 54 72 77 71 67 66 60 41 22 41 60 48 37 34 13 276 267 274 268 260 253 260 261
341 337 337 339 333 318 297 268 229 205 204 132 121 132 143 154 152 143 135 122 111 105 121 134 121 111 131 142 155 171 180 177 158 144 139 140 154 164 167 175 184 180 153 137 88 87 108 103 96 93 99 108 127 186 32 59 61 61 62 61 73 69 61 67 65 57 68 78 78 69 60 58 57 25 38 61 49 39 38 30 9 249 259 235 221 251 281 268
341 337 339 341 332 318 294 245 192 180 154 109 115 125 138 153 152 142 133 125 114 107 127 140 131 131 135 142 162 171 177 180 171 163 158 155 164 163 168 205 217 200 170 174 195 169 140 124 120 138 137 118 131 4 38 58 43 40 56 57 63 74 69 65 64 55 61 78 63 46 49 52 60 37 33 51 52 37 29 25 25 227 218 204 208 255 296 274
341 338 342 341 331 323 291 188 163 157 121 105 113 122 132 145 148 142 136 130 126 133 142 143 137 132 129 141 152 156 166 175 174 171 166 158 153 153 167 199 213 189 173 177 187 188 175 176 173 136 105 113 168 338 84 113 48 28 55 68 63 69 71 66 54 40 45 76 47 32 34 31 35 36 12 25 45 43 28 25 16 8 205 206 214 252 285 274
342 341 345 342 338 349 137 151 149 133 108 108 116 124 134 141 145 146 139 129 126 128 130 132 135 134 137 144 145 144 146 153 161 160 157 152 145 149 161 170 173 170 177 181 174 182 191 189 195 156 98 154 170 171 167 149 48 358 5 57 73 75 70 54 32 27 38 54 43 26 14 24 25 12 330 355 16 28 26 23 11 9 333 226 221 244 264 270
344 345 349 348 6 92 129 139 135 116 109 114 121 128 136 141 144 143 136 130 128 125 123 128 132 133 140 140 138 139 135 139 152 152 154 152 141 149 161 162 167 167 179 183 169 181 188 147 178 199 191 175 178 192 185 136 283 336 22 48 65 73 76 48 22 17 33 40 31 17 15 46 46 37 39 8 9 17 18 16 357 356 352 309 254 255 264 268
346 350 354 4 80 117 126 130 121 112 116 122 128 133 137 141 141 138 134 132 129 125 125 128 128 131 136 137 138 137 132 137 144 145 154 151 142 162 162 165 172 166 175 181 182 184 145 115 171 196 198 208 225 246 222 188 174 25 30 59 67 56 58 54 36 26 33 39 36 11 36 63 60 56 49 35 29 23 18 17 352 343 346 341 333 313 294 284
349 354 3 53 114 121 119 118 113 115 126 131 136 140 142 143 140 138 136 131 128 128 129 128 128 132 137 139 139 136 135 141 135 138 148 140 145 162 163 175 173 165 166 163 178 147 99 117 170 180 177 209 256 274 219 216 145 99 32 43 63 50 39 52 54 39 35 40 28 351 77 75 63 64 55 35 33 30 27 26 6 355 353 353 348 325 309 300
351 359 17 121 123 118 115 116 116 121 134 141 145 148 149 146 140 141 138 132 130 127 129 130 128 133 137 137 142 136 132 136 131 135 141 137 147 155 163 172 162 157 160 149 146 120 108 123 122 108 109 101 62 76 172 251 336 121 104 40 56 48 42 49 45 33 30 44 22 352 41 84 70 64 56 38 34 27 24 25 11 4 1 359 347 325 314 301
351 1 62 146 127 123 123 121 125 130 142 151 155 158 157 149 141 143 140 137 139 129 132 140 134 140 143 137 143 139 130 136 136 135 137 140 147 144 147 163 161 158 155 148 141 119 112 114 97 93 98 94 100 98 100 297 316 103 95 42 62 33 30 47 27 21 26 40 29 8 25 85 78 64 56 53 52 37 26 23 16 12 9 1 341 325 318 302
351 3 144 159 136 134 132 129 138 143 152 161 164 166 163 154 145 146 145 143 146 141 145 155 150 151 150 143 142 143 145 146 140 137 137 138 141 134 131 155 168 159 151 156 147 121 111 108 96 96 106 112 101 78 88 355 6 68 85 259 94 348 328 26 2 24 34 26 49 36 32 75 73 65 64 64 63 54 38 28 23 22 20 14 356 333 317 302
349 3 162 169 146 141 143 144 153 157 161 167 169 168 167 163 152 152 156 144 145 153 157 159 159 151 149 149 145 144 146 138 136 144 138 132 137 131 129 151 156 154 163 178 127 121 132 117 103 121 131 97 71 65 110 100 31 54 113 157 43 337 307 343 330 20 35 333 67 47 23 67 74 72 75 66 59 56 46 35 32 34 36 30 12 354 332 313
346 0 168 171 153 151 157 158 167 168 169 171 171 168 169 167 155 156 175 160 148 163 160 149 155 152 148 152 150 142 139 134 141 151 137 129 138 135 140 149 141 141 160 152 88 125 154 146 126 129 77 82 119 126 117 106 51 26 59 20 357 49 60 292 312 4 339 303 61 33 6 53 89 78 60 54 52 51 47 38 38 44 48 41 27 14 359 338
343 355 170 169 158 162 165 171 177 176 175 174 170 169 169 164 158 164 187 162 150 166 165 152 153 156 150 153 152 141 140 146 148 144 132 131 138 139 144 147 138 133 140 116 107 129 137 122 108 98 99 113 130 135 107 119 123 31 10 353 177 81 48 307 340 316 275 83 50 22 17 56 103 74 49 48 56 58 58 48 45 50 47 39 32 27 22 15
339 218 169 165 163 170 173 178 182 180 177 169 163 162 159 157 167 183 182 161 153 158 164 157 152 154 153 159 159 144 142 153 147 131 124 131 130 133 139 146 150 150 151 136 126 134 127 113 103 89 91 98 97 107 85 322 31 24 307 261 240 232 227 224 175 267 267 73 35 20 56 79 70 67 51 56 68 69 71 63 56 54 45 39 37 34 30 28
331 196 168 165 173 179 181 183 183 180 172 161 155 152 149 158 181 185 152 156 156 153 157 158 156 156 153 155 157 148 147 153 149 137 134 134 136 145 146 150 162 174 174 154 144 146 130 105 100 79 67 79 78 202 215 320 211 243 260 265 265 250 243 282 307 329 16 60 30 35 77 81 73 67 51 76 81 74 77 73 63 55 45 42 41 37 34 30
322 186 168 169 178 183 187 187 182 175 167 159 154 149 151 176 189 159 145 152 157 158 160 159 158 157 153 152 149 147 150 149 146 145 141 132 136 153 155 156 175 224 201 157 167 172 152 134 122 77 61 72 35 320 327 69 49 274 274 287 294 305 351 308 310 16 56 66 56 69 85 84 86 71 60 92 90 74 77 75 64 54 44 43 42 39 36 30
308 185 171 173 182 186 190 190 182 173 166 160 153 152 169 193 177 161 158 159 161 161 158 154 154 153 154 159 152 147 149 150 149 147 146 139 130 136 128 137 184 215 165 170 187 210 191 142 129 126 122 89 45 25 26 29 22 358 306 288 317 357 347 324 345 14 29 69 86 89 32 37 66 71 85 95 85 71 72 67 61 53 43 40 40 40 36 30
282 188 175 175 184 189 193 193 182 173 167 161 155 163 187 185 166 165 168 167 163 160 156 153 155 154 153 159 157 152 152 154 154 148 149 152 138 129 119 109 131 136 161 193 177 207 249 121 129 165 139 96 81 82 51 7 51 72 354 284 22 30 0 0 47 20 341 325 91 71 32 53 73 91 94 86 74 61 52 52 50 41 36 37 36 38 37 30
252 190 182 181 185 189 197 195 183 174 169 162 160 179 190 174 168 171 174 172 165 160 158 155 158 164 161 157 157 160 162 159 156 148 151 158 148 137 130 122 126 124 124 147 145 205 236 153 149 186 128 139 184 133 81 357 28 72 122 83 48 29 16 94 94 60 283 269 87 60 30 104 114 106 87 70 64 48 38 46 41 23 17 20 24 28 29 23
237 192 189 188 184 185 194 192 183 177 170 165 168 187 186 176 178 177 175 172 167 163 165 165 166 169 168 161 157 160 163 162 159 151 153 157 150 143 134 122 124 120 112 114 116 248 258 167 145 147 125 173 182 149 156 109 23 0 99 101 240 184 139 230 310 281 259 303 77 55 340 93 132 112 88 58 41 22 19 30 23 16 7 1 8 8 3 4
230 196 195 191 183 186 190 187 183 178 172 169 178 186 173 173 180 179 173 171 170 167 171 178 175 171 172 167 160 158 161 166 166 160 154 154 154 150 137 121 116 112 100 98 95 243 256 229 168 166 172 176 174 166 160 168 213 350 53 26 273 265 116 285 318 338 312 339 66 118 286 12 54 80 73 47 40 28 21 14 7 8 1 354 1 356 348 345
224 198 199 194 184 185 185 185 184 178 173 174 184 186 176 173 176 177 173 173 175 172 177 189 182 174 173 167 161 160 162 169 173 170 162 157 161 159 148 133 124 122 101 81 65 275 246 245 196 175 197 195 187 223 241 198 229 260 171 179 291 321 343 332 332 329 317 312 335 333 144 79 59 70 63 43 42 37 30 26 15 6 0 359 358 351 343 336
223 200 201 196 187 184 183 184 183 178 176 181 187 182 175 172 173 178 177 176 178 178 188 195 187 178 173 166 164 166 166 171 172 171 169 161 160 164 166 157 141 149 56 30 5 353 220 240 214 166 200 214 198 218 230 210 220 256 257 224 163 228 316 321 163 317 317 312 329 321 14 81 65 67 65 42 30 23 16 16 14 358 358 8 359 347 342 334
223 203 206 199 188 185 182 183 184 180 180 187 188 183 177 174 175 181 181 181 183 185 191 194 189 183 175 168 172 174 170 171 172 172 165 160 160 163 175 176 164 164 29 35 8 7 182 222 230 191 197 198 187 202 208 202 198 231 279 250 253 278 294 284 204 128 323 322 351 315 317 75 87 96 65 36 10 6 354 354 0 344 344 4 355 338 335 330
218 204 209 200 190 185 181 185 189 184 180 184 188 186 184 184 186 186 185 184 188 190 186 186 188 186 180 176 180 181 171 165 169 172 164 167 179 184 179 181 183 162 96 91 322 345 129 189 207 193 168 160 187 199 201 199 190 189 231 190 254 293 301 304 318 74 295 312 27 303 305 72 94 226 3 356 347 348 336 335 344 335 336 354 343 328 326 325
221 209 206 197 191 184 181 186 190 187 185 187 187 184 183 187 189 184 183 184 186 187 182 180 183 183 182 179 181 185 182 176 175 178 173 175 188 194 185 182 190 169 130 130 308 352 95 161 170 158 146 159 188 190 194 196 178 145 109 139 134 48 6 326 343 331 279 277 19 288 266 81 69 288 326 338 333 332 330 326 328 336 348 351 341 332 332 335
230 214 204 195 189 182 180 184 187 188 192 190 185 184 186 193 191 180 178 181 180 180 180 179 179 180 179 175 172 178 183 178 176 181 181 180 185 190 188 191 200 183 150 167 240 206 171 185 182 169 162 173 187 200 203 191 160 105 78 127 126 89 72 287 346 293 268 261 336 297 356 75 49 339 336 326 311 317 331 329 328 7 4 351 345 340 344 352
229 214 206 198 190 185 184 186 187 189 192 189 186 189 193 198 191 178 175 178 178 179 181 179 178 177 173 166 165 174 179 177 181 185 184 185 191 193 197 205 210 202 213 243 195 197 192 191 202 222 226 197 183 181 170 156 152 140 72 38 266 253 257 275 290 280 268 146 245 278 351 42 17 0 345 315 293 316 347 359 26 26 357 346 347 341 342 347
222 209 206 201 195 192 190 190 191 192 191 188 189 193 194 191 183 176 174 176 177 179 182 181 176 170 168 164 165 174 181 179 179 181 177 180 195 203 204 216 226 221 252 26 150 177 176 186 204 245 324 53 74 86 142 141 138 158 50 22 311 246 212 238 268 271 278 191 204 226 15 9 4 4 344 300 293 21 15 2 359 348 321 298 297 313 318 325
219 210 207 200 196 197 194 192 194 196 193 190 190 192 189 182 178 177 178 179 178 179 182 181 175 171 172 172 171 175 178 169 170 178 176 178 197 212 211 225 242 238 243 109 133 139 138 169 184 178 94 95 95 118 162 145 118 113 73 52 30 211 172 194 254 264 254 251 192 102 73 354 356 344 323 287 208 12 339 304 291 300 296 287 292 306 310 315
221 216 209 200 196 199 197 194 196 198 195 192 192 191 186 180 178 180 180 179 182 183 181 178 177 176 175 174 178 184 179 173 178 184 181 183 193 199 213 249 255 242 231 107 140 144 139 154 154 134 119 123 117 117 119 109 100 101 89 70 58 99 159 186 229 198 208 275 7 98 148 1 334 300 310 314 273 272 282 280 281 288 290 287 291 302 302 295
222 217 211 203 201 202 199 195 196 197 197 196 194 191 188 184 182 182 181 181 186 191 189 184 182 181 179 180 187 191 185 182 184 182 181 190 195 185 197 241 257 243 197 142 157 148 133 152 155 131 120 127 123 120 109 95 99 103 90 74 74 85 120 149 176 182 193 237 137 172 162 70 294 284 311 307 299 296 287 283 285 285 283 281 279 281 282 282
222 214 209 206 206 206 201 196 195 197 199 198 196 194 192 190 188 187 191 190 188 192 193 192 190 184 178 180 180 179 183 184 182 184 187 197 205 199 201 209 218 231 208 176 176 153 137 174 176 144 144 151 134 128 119 109 111 102 82 80 99 103 112 128 161 181 180 163 170 177 127 23 303 305 309 301 301 300 294 294 289 281 277 274 273 273 277 281
223 216 209 205 206 206 202 197 195 197 200 200 199 198 195 194 194 193 196 194 187 186 187 188 191 185 176 177 174 170 176 176 173 182 190 198 209 217 224 225 222 220 215 210 199 168 162 198 192 185 196 174 150 150 142 133 131 105 79 84 106 124 134 137 155 169 153 126 122 144 14 344 328 323 311 303 300 296 298 301 290 278 272 268 267 271 274 278
222 218 210 205 205 205 201 199 197 197 201 202 202 201 197 196 196 194 194 193 185 185 183 179 183 183 178 180 179 171 168 164 163 176 190 206 225 239 251 254 240 214 212 224 222 204 193 188 189 207 208 167 159 162 154 163 167 124 92 103 111 116 127 129 121 122 132 111 70 14 0 4 354 341 325 314 308 304 306 304 289 276 269 265 265 269 271 274
Height
3156 3155 3154 3154 3153 3153 3152 3151 3151 3150 3149 3148 3148 3147 3147 3146 3146 3146 3146 3146 3146 3146 3146 3146 3146 3147 3146 3147 3147 3147 3148 3148 3149 3149 3149 3150 3151 3151 3151 3151 3151 3152 3152 3153 3153 3154 3155 3156 3157 3158 3160 3162 3163 3165 3165 3165 3166 3167 3168 3168 3167 3167 3168 3168 3170 3170 3169 3170 3169 3167 3166 3166 3166 3165 3164 3164 3163 3163 3162 3162 3162 3162 3162 3162 3162 3162 3162 3161
3156 3156 3155 3155 3154 3153 3153 3152 3151 3150 3149 3149 3148 3148 3147 3147 3146 3146 3146 3146 3146 3146 3146 3147 3147 3147 3147 3147 3147 3148 3148 3149 3149 3150 3150 3151 3151 3152 3152 3152 3152 3152 3153 3154 3154 3155 3157 3158 3159 3160 3162 3165 3165 3166 3167 3167 3167 3168 3169 3167 3167 3168 3168 3168 3169 3169 3169 3169 3168 3167 3166 3166 3165 3165 3164 3164 3163 3163 3162 3162 3161 3161 3162 3162 3162 3162 3162 3161
3157 3156 3156 3155 3154 3154 3153 3152 3152 3151 3150 3149 3149 3148 3148 3147 3147 3146 3146 3146 3147 3147 3147 3147 3147 3147 3147 3147 3148 3149 3149 3149 3150 3151 3152 3152 3153 3153 3153 3153 3153 3153 3154 3155 3156 3156 3158 3160 3161 3161 3164 3167 3166 3167 3168 3168 3168 3169 3168 3167 3168 3168 3169 3168 3168 3168 3167 3167 3167 3166 3165 3165 3164 3164 3164 3164 3163 3163 3162 3162 3161 3162 3162 3162 3162 3162 3162 3160
3157 3157 3156 3155 3155 3154 3153 3153 3152 3151 3150 3150 3149 3148 3148 3147 3147 3147 3147 3147 3147 3147 3147 3148 3148 3148 3148 3148 3148 3149 3150 3151 3152 3152 3153 3153 3154 3154 3154 3154 3154 3155 3156 3156 3157 3158 3159 3160 3162 3163 3165 3168 3167 3167 3169 3168 3168 3169 3168 3168 3169 3169 3169 3168 3167 3167 3166 3166 3166 3165 3165 3164 3163 3163 3164 3164 3163 3162 3162 3162 3162 3162 3162 3162 3163 3163 3162 3160
3157 3156 3156 3155 3155 3154 3153 3153 3152 3151 3151 3150 3149 3149 3148 3148 3147 3147 3147 3147 3147 3148 3148 3148 3148 3148 3148 3148 3149 3150 3150 3153 3154 3153 3154 3154 3155 3155 3156 3156 3156 3157 3157 3158 3159 3159 3161 3162 3163 3164 3166 3168 3168 3168 3169 3168 3168 3169 3169 3168 3168 3168 3169 3168 3167 3166 3166 3165 3165 3165 3165 3164 3163 3163 3163 3163 3162 3162 3162 3162 3162 3162 3163 3163 3163 3163 3163 3161
3157 3156 3156 3155 3155 3154 3153 3153 3152 3151 3151 3150 3149 3148 3148 3148 3147 3147 3147 3147 3148 3148 3149 3149 3149 3149 3149 3149 3150 3151 3151 3153 3154 3154 3155 3155 3156 3157 3157 3157 3157 3158 3158 3159 3160 3161 3162 3163 3164 3165 3167 3169 3169 3169 3169 3168 3168 3170 3169 3168 3168 3168 3168 3167 3167 3166 3165 3165 3165 3165 3164 3164 3164 3163 3163 3163 3162 3162 3162 3162 3162 3163 3163 3163 3163 3164 3164 3163
3157 3156 3156 3155 3154 3154 3153 3152 3152 3151 3150 3150 3149 3148 3148 3148 3147 3147 3147 3148 3148 3149 3149 3149 3150 3149 3150 3150 3151 3152 3152 3153 3154 3154 3156 3156 3157 3158 3158 3158 3159 3159 3160 3160 3161 3162 3163 3164 3165 3166 3168 3169 3168 3168 3168 3168 3169 3170 3170 3168 3168 3168 3168 3167 3166 3166 3165 3165 3165 3164 3164 3164 3164 3163 3163 3162 3162 3162 3162 3163 3163 3164 3164 3163 3164 3164 3164 3164
3156 3156 3155 3154 3154 3153 3152 3152 3151 3150 3150 3149 3149 3148 3148 3148 3147 3147 3148 3148 3149 3150 3150 3150 3150 3150 3150 3150 3152 3154 3154 3154 3155 3155 3156 3157 3158 3159 3159 3160 3160 3160 3161 3162 3162 3163 3164 3165 3166 3167 3168 3169 3168 3168 3168 3169 3170 3170 3169 3168 3168 3168 3167 3167 3166 3166 3165 3165 3164 3164 3164 3163 3163 3163 3162 3162 3162 3162 3163 3163 3164 3165 3165 3164 3164 3165 3165 3165
3156 3155 3154 3154 3153 3152 3152 3151 3150 3150 3149 3149 3148 3148 3147 3147 3147 3148 3148 3149 3149 3150 3150 3150 3150 3150 3151 3151 3153 3155 3155 3155 3156 3157 3157 3158 3159 3160 3160 3161 3161 3162 3162 3163 3163 3164 3165 3165 3166 3167 3168 3168 3168 3169 3169 3170 3170 3170 3169 3169 3169 3168 3167 3167 3166 3166 3165 3165 3164 3164 3164 3163 3163 3163 3162 3162 3163 3164 3164 3164 3165 3166 3166 3165 3166 3166 3166 3166
3155 3154 3153 3153 3152 3151 3151 3150 3150 3149 3148 3148 3148 3147 3147 3147 3148 3148 3149 3149 3150 3150 3150 3151 3151 3151 3151 3152 3154 3157 3156 3156 3157 3158 3159 3159 3160 3161 3161 3162 3162 3163 3163 3164 3164 3165 3165 3166 3166 3166 3168 3168 3169 3169 3169 3170 3170 3169 3169 3169 3169 3168 3168 3167 3166 3165 3165 3165 3164 3165 3164 3164 3163 3163 3163 3163 3164 3165 3165 3166 3166 3167 3167 3167 3167 3167 3167 3167
3154 3154 3153 3152 3151 3150 3150 3149 3149 3148 3148 3147 3147 3147 3147 3147 3148 3148 3149 3150 3150 3150 3151 3151 3151 3152 3152 3153 3156 3157 3156 3157 3158 3159 3159 3160 3161 3162 3162 3163 3163 3164 3164 3165 3166 3166 3166 3166 3166 3167 3168 3169 3169 3169 3169 3169 3169 3169 3169 3169 3169 3168 3168 3167 3167 3166 3165 3165 3164 3164 3165 3165 3164 3164 3164 3164 3165 3166 3166 3166 3167 3167 3167 3167 3168 3168 3167 3167
3154 3153 3152 3151 3150 3149 3148 3148 3148 3147 3147 3147 3147 3147 3147 3147 3148 3148 3149 3150 3150 3151 3151 3152 3152 3152 3153 3154 3156 3157 3157 3158 3159 3160 3160 3161 3162 3163 3164 3164 3164 3165 3165 3166 3167 3167 3167 3167 3167 3167 3168 3169 3169 3169 3169 3169 3169 3169 3169 3170 3169 3168 3168 3167 3167 3166 3165 3166 3164 3163 3165 3166 3166 3165 3165 3165 3166 3166 3166 3167 3167 3167 3168 3168 3168 3168 3168 3168
3153 3152 3151 3150 3149 3148 3147 3147 3146 3146 3146 3146 3146 3146 3147 3147 3148 3148 3149 3150 3151 3152 3152 3152 3152 3153 3154 3156 3156 3157 3158 3159 3160 3161 3162 3162 3163 3164 3165 3165 3165 3166 3166 3167 3167 3168 3168 3168 3167 3168 3168 3169 3170 3170 3170 3169 3169 3169 3170 3170 3169 3169 3169 3168 3167 3166 3166 3166 3165 3163 3164 3167 3166 3165 3166 3166 3166 3166 3166 3167 3167 3167 3168 3168 3168 3168 3168 3168
3152 3151 3150 3149 3148 3147 3146 3146 3145 3145 3146 3146 3146 3146 3147 3147 3148 3149 3150 3151 3152 3152 3152 3152 3153 3153 3155 3157 3157 3158 3159 3160 3161 3161 3162 3163 3164 3165 3166 3166 3166 3167 3167 3168 3168 3168 3169 3168 3168 3169 3169 3170 3170 3170 3170 3170 3170 3170 3170 3170 3170 3170 3170 3169 3167 3167 3167 3167 3166 3164 3165 3167 3167 3166 3167 3166 3166 3166 3166 3167 3167 3167 3168 3168 3168 3168 3168 3168
3151 3150 3149 3148 3147 3146 3145 3144 3144 3145 3145 3145 3146 3146 3147 3147 3148 3149 3150 3151 3152 3153 3153 3153 3153 3154 3156 3157 3158 3159 3160 3161 3162 3162 3163 3164 3165 3166 3166 3167 3167 3168 3168 3169 3169 3169 3169 3169 3170 3170 3170 3170 3170 3171 3172 3171 3171 3171 3170 3170 3171 3170 3170 3170 3169 3169 3169 3168 3167 3165 3166 3168 3168 3167 3167 3167 3167 3167 3167 3167 3167 3167 3168 3168 3168 3168 3168 3168
3150 3149 3147 3146 3145 3144 3143 3143 3143 3144 3144 3145 3145 3146 3146 3147 3148 3150 3151 3152 3153 3153 3154 3154 3155 3156 3158 3159 3159 3160 3161 3161 3162 3163 3164 3165 3165 3166 3167 3167 3168 3168 3169 3170 3170 3170 3170 3170 3170 3171 3170 3171 3172 3172 3172 3171 3172 3171 3171 3171 3171 3170 3171 3171 3170 3170 3169 3169 3169 3167 3168 3170 3169 3168 3168 3168 3168 3167 3167 3167 3167 3168 3168 3168 3168 3168 3168 3168
3149 3147 3146 3145 3143 3142 3142 3141 3142 3143 3144 3144 3145 3146 3146 3147 3149 3150 3152 3153 3153 3154 3154 3155 3156 3157 3158 3159 3160 3161 3161 3162 3163 3164 3165 3166 3166 3167 3167 3168 3169 3169 3170 3170 3170 3171 3171 3171 3171 3171 3172 3172 3173 3173 3171 3170 3171 3172 3172 3172 3172 3172 3171 3172 3172 3171 3170 3170 3171 3170 3170 3171 3171 3170 3169 3169 3168 3168 3168 3168 3168 3168 3168 3168 3169 3169 3169 3169
3148 3146 3145 3143 3142 3141 3140 3140 3141 3142 3143 3144 3145 3146 3147 3148 3149 3151 3152 3153 3154 3155 3155 3156 3157 3157 3159 3160 3161 3162 3162 3163 3164 3165 3166 3166 3167 3168 3168 3169 3170 3170 3171 3171 3171 3172 3172 3172 3173 3173 3173 3173 3173 3172 3171 3171 3171 3172 3172 3172 3172 3172 3172 3173 3173 3172 3171 3171 3172 3172 3172 3172 3172 3171 3170 3169 3169 3168 3168 3168 3167 3168 3168 3168 3168 3169 3169 3169
3147 3145 3143 3142 3141 3140 3140 3140 3141 3142 3143 3144 3145 3146 3147 3148 3150 3152 3153 3154 3155 3156 3157 3157 3157 3158 3159 3160 3160 3161 3162 3164 3165 3166 3167 3167 3168 3168 3169 3170 3170 3171 3173 3173 3173 3173 3173 3173 3173 3173 3173 3174 3174 3173 3172 3173 3173 3173 3172 3172 3172 3172 3173 3174 3173 3173 3172 3172 3173 3173 3173 3173 3173 3173 3171 3170 3169 3169 3169 3168 3168 3167 3168 3168 3168 3168 3168 3169
3146 3144 3142 3141 3140 3139 3139 3140 3141 3142 3143 3144 3145 3146 3147 3149 3152 3153 3154 3154 3155 3156 3157 3157 3157 3158 3159 3160 3160 3162 3163 3164 3166 3167 3167 3168 3169 3169 3170 3170 3171 3172 3173 3174 3174 3173 3173 3173 3173 3173 3173 3174 3174 3174 3173 3173 3173 3173 3173 3172 3172 3172 3173 3174 3174 3173 3173 3173 3174 3173 3173 3174 3173 3173 3172 3171 3170 3170 3169 3169 3168 3168 3168 3168 3168 3168 3168 3169
3145 3143 3141 3140 3139 3138 3139 3140 3141 3142 3143 3144 3145 3147 3148 3150 3152 3153 3154 3155 3156 3156 3157 3157 3157 3158 3160 3160 3161 3162 3164 3165 3166 3167 3168 3168 3169 3170 3171 3171 3172 3173 3173 3173 3174 3174 3173 3173 3173 3173 3174 3174 3174 3174 3174 3173 3174 3173 3173 3172 3172 3172 3174 3174 3174 3173 3173 3173 3174 3173 3173 3173 3173 3174 3173 3172 3171 3171 3171 3170 3170 3169 3169 3169 3169 3168 3168 3168
3144 3142 3141 3139 3138 3139 3140 3141 3142 3143 3144 3145 3146 3147 3149 3150 3152 3153 3154 3155 3156 3157 3157 3158 3159 3159 3160 3161 3162 3163 3164 3166 3167 3167 3168 3169 3170 3171 3171 3172 3173 3173 3173 3173 3174 3174 3173 3173 3173 3174 3174 3174 3174 3174 3174 3174 3174 3173 3172 3172 3172 3172 3174 3174 3174 3173 3173 3173 3174 3173 3173 3173 3174 3173 3172 3172 3172 3172 3172 3171 3171 3170 3170 3169 3169 3169 3168 3168
3143 3142 3140 3139 3139 3139 3140 3141 3142 3143 3144 3145 3147 3148 3150 3151 3152 3153 3154 3156 3157 3157 3158 3159 3159 3160 3161 3162 3163 3164 3165 3167 3168 3168 3168 3169 3170 3170 3171 3172 3173 3173 3173 3173 3173 3172 3172 3173 3174 3174 3174 3174 3174 3174 3174 3174 3174 3173 3173 3172 3172 3173 3173 3174 3174 3174 3173 3173 3173 3173 3173 3173 3173 3173 3173 3172 3173 3172 3172 3172 3172 3171 3171 3170 3170 3170 3169 3169
3143 3142 3140 3140 3140 3140 3141 3142 3143 3144 3145 3146 3147 3149 3150 3152 3153 3154 3155 3156 3158 3158 3159 3159 3160 3161 3162 3163 3163 3164 3166 3167 3168 3168 3168 3169 3170 3170 3171 3171 3172 3173 3173 3173 3173 3172 3172 3174 3174 3174 3174 3175 3174 3174 3174 3174 3173 3174 3174 3173 3173 3174 3174 3174 3174 3174 3174 3173 3173 3172 3172 3173 3174 3174 3174 3173 3173 3173 3173 3172 3172 3172 3171 3171 3171 3170 3170 3169
3143 3141 3141 3140 3141 3141 3142 3143 3143 3144 3145 3146 3148 3149 3151 3152 3153 3154 3155 3157 3158 3159 3160 3160 3161 3162 3162 3163 3164 3165 3166 3167 3167 3168 3168 3169 3169 3170 3171 3171 3172 3173 3173 3174 3174 3173 3174 3175 3175 3175 3175 3175 3175 3175 3175 3174 3173 3173 3174 3174 3174 3175 3175 3175 3175 3174 3173 3173 3173 3171 3170 3173 3175 3175 3175 3175 3174 3173 3173 3173 3173 3172 3172 3172 3171 3171 3170 3170
3142 3141 3141 3141 3141 3141 3142 3143 3144 3145 3146 3147 3148 3150 3151 3152 3153 3154 3156 3157 3158 3160 3161 3161 3162 3162 3163 3164 3164 3165 3167 3168 3168 3168 3168 3169 3169 3170 3171 3171 3172 3172 3173 3174 3174 3174 3175 3175 3175 3176 3176 3176 3175 3175 3175 3174 3173 3173 3174 3175 3175 3175 3175 3175 3175 3175 3174 3174 3174 3172 3169 3171 3174 3176 3176 3176 3175 3174 3174 3173 3173 3173 3173 3172 3171 3171 3170 3170
3142 3141 3141 3141 3141 3141 3142 3143 3144 3145 3146 3147 3148 3150 3151 3153 3154 3155 3156 3157 3158 3159 3161 3161 3162 3162 3163 3164 3165 3166 3167 3167 3168 3168 3169 3169 3169 3170 3171 3172 3172 3172 3173 3174 3173 3174 3176 3176 3176 3176 3176 3176 3175 3175 3175 3174 3173 3173 3174 3175 3175 3175 3175 3175 3175 3175 3175 3175 3174 3174 3172 3171 3174 3176 3177 3176 3176 3176 3175 3174 3174 3173 3173 3172 3172 3171 3170 3169
3142 3141 3141 3141 3141 3141 3142 3143 3144 3145 3146 3147 3148 3150 3151 3153 3154 3155 3156 3156 3158 3159 3160 3161 3162 3162 3163 3164 3165 3166 3166 3167 3169 3169 3169 3169 3170 3170 3171 3172 3172 3173 3173 3173 3173 3174 3176 3177 3177 3177 3177 3176 3175 3176 3176 3175 3174 3174 3175 3175 3175 3175 3175 3175 3175 3174 3175 3174 3174 3175 3174 3173 3175 3177 3177 3177 3177 3177 3176 3175 3174 3174 3173 3173 3172 3171 3170 3169
3141 3140 3140 3141 3141 3141 3142 3143 3144 3145 3146 3147 3149 3150 3152 3153 3154 3156 3156 3156 3158 3160 3160 3161 3162 3162 3163 3165 3166 3166 3167 3168 3169 3169 3169 3170 3170 3171 3172 3172 3172 3173 3174 3174 3174 3175 3176 3176 3176 3176 3176 3176 3176 3176 3176 3175 3176 3175 3175 3175 3175 3175 3175 3175 3174 3174 3174 3174 3174 3176 3175 3173 3175 3177 3177 3177 3177 3177 3177 3177 3175 3175 3174 3173 3172 3171 3171 3170
3140 3140 3140 3140 3141 3141 3142 3143 3144 3145 3146 3147 3149 3150 3152 3153 3155 3156 3156 3157 3158 3160 3160 3161 3162 3163 3164 3165 3166 3167 3168 3168 3169 3169 3170 3170 3170 3171 3172 3172 3173 3174 3175 3175 3175 3175 3176 3176 3176 3176 3176 3176 3176 3176 3176 3176 3176 3175 3175 3175 3175 3175 3175 3175 3174 3174 3173 3173 3175 3176 3176 3174 3174 3177 3178 3178 3178 3178 3178 3178 3176 3175 3175 3174 3173 3172 3171 3170
3140 3139 3140 3140 3141 3141 3142 3143 3144 3145 3146 3147 3149 3150 3152 3154 3155 3155 3156 3157 3158 3159 3161 3162 3162 3163 3164 3166 3167 3167 3168 3168 3169 3170 3171 3171 3172 3172 3172 3173 3174 3174 3175 3175 3176 3176 3176 3177 3177 3176 3176 3176 3176 3176 3176 3176 3175 3176 3176 3175 3175 3175 3174 3173 3174 3173 3172 3173 3175 3176 3176 3175 3174 3177 3180 3179 3179 3178 3178 3178 3177 3176 3176 3175 3174 3172 3171 3170
3139 3139 3139 3140 3140 3141 3142 3143 3144 3145 3146 3147 3149 3151 3153 3155 3155 3155 3155 3157 3158 3159 3161 3162 3162 3163 3165 3166 3167 3168 3168 3169 3169 3170 3171 3172 3172 3173 3173 3173 3174 3173 3173 3174 3175 3176 3177 3177 3177 3177 3177 3176 3176 3176 3176 3175 3176 3176 3175 3175 3174 3171 3171 3172 3171 3170 3171 3173 3176 3176 3176 3176 3176 3179 3180 3180 3179 3178 3177 3178 3177 3177 3176 3175 3174 3173 3172 3171
3139 3139 3139 3140 3140 3141 3142 3143 3144 3145 3146 3148 3149 3151 3153 3155 3155 3155 3156 3157 3158 3159 3160 3161 3162 3163 3165 3166 3167 3167 3168 3169 3170 3170 3171 3172 3173 3173 3173 3173 3173 3173 3173 3174 3175 3175 3175 3177 3177 3177 3177 3177 3176 3175 3175 3175 3176 3175 3175 3174 3172 3169 3171 3173 3170 3169 3171 3174 3176 3176 3175 3175 3177 3179 3180 3179 3178 3178 3178 3177 3177 3177 3177 3176 3175 3174 3173 3172
3139 3138 3139 3139 3140 3141 3142 3143 3144 3145 3147 3148 3150 3152 3154 3154 3154 3155 3156 3157 3157 3159 3160 3161 3162 3163 3165 3166 3166 3167 3168 3169 3170 3171 3172 3173 3173 3174 3174 3174 3174 3174 3174 3175 3175 3174 3173 3175 3177 3177 3177 3177 3177 3176 3176 3176 3176 3176 3175 3175 3173 3171 3173 3173 3170 3170 3171 3173 3175 3175 3175 3176 3177 3179 3179 3179 3178 3178 3178 3177 3177 3177 3177 3176 3175 3175 3174 3173
3138 3138 3139 3139 3140 3141 3142 3143 3144 3145 3147 3149 3151 3153 3154 3154 3154 3155 3157 3157 3158 3159 3160 3161 3162 3164 3165 3166 3166 3167 3168 3169 3170 3171 3172 3173 3174 3174 3174 3174 3174 3174 3175 3174 3175 3175 3175 3175 3176 3176 3177 3177 3177 3177 3177 3177 3176 3176 3176 3175 3174 3175 3175 3175 3174 3174 3174 3172 3174 3175 3176 3177 3178 3179 3179 3179 3179 3179 3178 3178 3178 3177 3176 3176 3175 3175 3174 3174
3138 3138 3139 3139 3140 3141 3142 3143 3145 3146 3147 3149 3152 3153 3153 3153 3154 3155 3156 3157 3158 3159 3160 3161 3163 3164 3165 3166 3166 3167 3168 3169 3170 3171 3172 3172 3173 3174 3174 3174 3174 3175 3175 3175 3175 3175 3175 3175 3176 3176 3177 3177 3177 3177 3177 3177 3176 3176 3175 3176 3176 3177 3177 3176 3176 3176 3175 3173 3174 3176 3176 3177 3178 3179 3180 3180 3180 3180 3179 3179 3179 3178 3177 3176 3175 3175 3174 3174
3138 3138 3139 3139 3140 3141 3142 3143 3145 3146 3148 3149 3152 3153 3153 3153 3154 3155 3156 3157 3158 3159 3160 3162 3163 3164 3165 3165 3167 3167 3168 3169 3170 3171 3172 3172 3173 3174 3174 3175 3175 3175 3175 3175 3176 3176 3175 3175 3176 3177 3177 3177 3177 3177 3177 3177 3177 3176 3176 3177 3177 3177 3177 3177 3175 3174 3173 3171 3173 3176 3176 3176 3177 3178 3180 3180 3180 3180 3180 3180 3179 3178 3177 3176 3175 3175 3174 3174
3138 3138 3139 3139 3140 3141 3142 3143 3145 3147 3148 3150 3152 3152 3153 3153 3154 3154 3155 3157 3158 3159 3161 3162 3163 3163 3164 3165 3166 3167 3168 3169 3170 3171 3172 3173 3174 3174 3174 3175 3175 3175 3175 3176 3176 3177 3176 3175 3175 3176 3177 3177 3177 3177 3177 3177 3177 3177 3176 3177 3177 3176 3176 3176 3175 3174 3173 3172 3173 3175 3176 3176 3176 3178 3180 3180 3180 3180 3180 3179 3179 3178 3177 3175 3174 3174 3174 3174
3137 3138 3138 3139 3140 3141 3142 3143 3145 3147 3149 3151 3152 3152 3152 3153 3154 3154 3156 3157 3158 3159 3161 3162 3162 3163 3164 3165 3166 3167 3168 3169 3170 3171 3172 3172 3173 3174 3174 3175 3175 3175 3176 3176 3176 3177 3176 3175 3174 3175 3177 3177 3177 3177 3177 3177 3177 3177 3177 3177 3177 3177 3176 3176 3176 3175 3175 3173 3172 3173 3174 3176 3177 3179 3180 3180 3180 3180 3180 3179 3179 3177 3176 3175 3174 3174 3174 3174
3137 3138 3138 3139 3140 3141 3142 3144 3145 3147 3149 3150 3151 3152 3152 3153 3154 3155 3156 3157 3158 3159 3160 3161 3162 3163 3164 3165 3166 3167 3168 3169 3170 3171 3172 3172 3173 3174 3174 3174 3175 3175 3175 3176 3176 3176 3176 3175 3174 3175 3176 3176 3177 3177 3177 3177 3177 3177 3177 3177 3177 3177 3177 3177 3176 3177 3175 3172 3172 3173 3173 3176 3179 3180 3180 3180 3180 3180 3179 3179 3179 3177 3175 3175 3175 3174 3174 3173
3136 3137 3138 3138 3140 3141 3142 3144 3145 3147 3148 3150 3150 3151 3152 3153 3154 3155 3156 3157 3158 3159 3160 3161 3162 3163 3163 3164 3166 3167 3168 3169 3170 3171 3172 3172 3173 3174 3174 3174 3175 3175 3175 3176 3176 3175 3175 3176 3175 3175 3175 3176 3175 3175 3176 3176 3177 3177 3177 3177 3177 3177 3177 3175 3173 3175 3176 3174 3174 3174 3173 3176 3180 3180 3179 3180 3179 3179 3179 3178 3178 3177 3175 3174 3174 3174 3173 3173
3136 3137 3137 3138 3139 3140 3142 3144 3145 3146 3148 3149 3150 3151 3152 3153 3154 3155 3156 3157 3158 3159 3159 3160 3161 3162 3163 3164 3165 3166 3168 3169 3170 3171 3171 3172 3172 3173 3173 3174 3174 3175 3175 3176 3175 3175 3174 3175 3175 3175 3175 3175 3175 3175 3175 3175 3176 3177 3177 3177 3177 3177 3177 3175 3172 3174 3176 3176 3177 3176 3174 3176 3179 3179 3178 3179 3179 3179 3178 3177 3177 3177 3174 3173 3174 3174 3173 3173
3135 3136 3137 3138 3139 3140 3141 3143 3145 3146 3147 3148 3149 3150 3151 3152 3153 3154 3156 3156 3157 3158 3159 3160 3161 3162 3163 3164 3165 3166 3167 3168 3169 3170 3171 3171 3172 3172 3173 3173 3174 3174 3175 3175 3175 3174 3174 3174 3175 3175 3175 3175 3175 3175 3176 3175 3176 3177 3177 3176 3177 3177 3177 3177 3176 3176 3176 3175 3177 3176 3173 3176 3179 3178 3178 3179 3178 3178 3177 3176 3176 3175 3173 3173 3174 3173 3173 3172
3134 3135 3136 3137 3138 3139 3141 3143 3145 3146 3147 3147 3149 3150 3151 3152 3153 3154 3155 3156 3157 3158 3159 3160 3161 3162 3163 3163 3165 3166 3167 3168 3169 3170 3171 3171 3171 3172 3172 3173 3173 3174 3174 3174 3174 3174 3174 3174 3174 3174 3175 3176 3176 3176 3175 3176 3176 3177 3177 3176 3177 3177 3177 3177 3177 3177 3175 3176 3178 3175 3172 3176 3179 3179 3178 3178 3177 3177 3177 3176 3175 3174 3174 3174 3173 3173 3173 3172
3133 3134 3136 3137 3138 3138 3140 3141 3143 3145 3146 3147 3148 3149 3150 3151 3152 3153 3155 3156 3157 3158 3159 3160 3161 3162 3163 3164 3165 3165 3166 3167 3168 3169 3170 3171 3171 3171 3172 3172 3173 3173 3173 3173 3173 3173 3174 3174 3174 3173 3171 3172 3172 3172 3173 3174 3176 3177 3177 3177 3177 3177 3177 3177 3177 3176 3174 3175 3177 3175 3174 3177 3179 3179 3178 3177 3176 3176 3176 3175 3175 3174 3174 3174 3173 3173 3172 3171
3132 3134 3135 3136 3137 3138 3139 3140 3142 3144 3145 3146 3148 3149 3150 3151 3152 3153 3154 3155 3157 3158 3159 3160 3161 3162 3163 3164 3165 3165 3166 3167 3168 3169 3170 3170 3170 3171 3171 3172 3172 3172 3172 3172 3172 3172 3173 3173 3173 3173 3171 3171 3171 3172 3173 3174 3176 3177 3177 3177 3176 3176 3176 3177 3176 3175 3174 3175 3176 3176 3176 3178 3179 3178 3177 3176 3176 3176 3176 3175 3175 3175 3174 3173 3172 3171 3171 3170
3131 3132 3133 3135 3136 3137 3138 3140 3141 3143 3144 3145 3147 3148 3149 3150 3151 3153 3154 3155 3156 3158 3159 3160 3161 3162 3163 3163 3164 3165 3166 3167 3167 3168 3169 3170 3170 3170 3171 3171 3171 3172 3172 3172 3172 3172 3173 3173 3173 3173 3173 3172 3173 3173 3174 3175 3176 3177 3177 3177 3176 3175 3176 3176 3176 3175 3175 3175 3175 3176 3177 3178 3178 3177 3176 3176 3176 3176 3176 3176 3175 3175 3174 3173 3172 3171 3171 3170
3130 3131 3132 3134 3135 3136 3137 3139 3140 3142 3143 3145 3146 3147 3149 3150 3151 3152 3153 3155 3156 3157 3159 3160 3161 3161 3162 3163 3164 3165 3165 3166 3167 3167 3168 3169 3170 3170 3170 3170 3170 3171 3171 3171 3171 3172 3173 3173 3173 3173 3173 3173 3174 3174 3175 3176 3176 3176 3176 3176 3176 3175 3175 3176 3176 3175 3176 3175 3175 3176 3177 3177 3177 3177 3176 3176 3176 3176 3176 3175 3175 3175 3174 3173 3172 3172 3171 3170
3128 3130 3131 3133 3134 3135 3136 3137 3139 3141 3143 3144 3146 3147 3148 3149 3150 3152 3153 3154 3155 3157 3158 3159 3160 3161 3162 3163 3163 3164 3165 3166 3166 3167 3167 3168 3169 3170 3170 3170 3170 3170 3171 3171 3171 3171 3173 3173 3173 3174 3174 3174 3174 3175 3175 3176 3176 3176 3176 3176 3175 3175 3175 3175 3175 3175 3176 3176 3176 3176 3176 3176 3176 3176 3176 3176 3175 3175 3175 3174 3174 3174 3173 3172 3172 3171 3170 3169
3127 3128 3129 3131 3133 3134 3135 3136 3138 3140 3142 3143 3145 3146 3147 3148 3150 3151 3152 3153 3154 3156 3157 3158 3159 3160 3161 3162 3163 3164 3164 3165 3165 3166 3167 3167 3168 3169 3169 3169 3169 3170 3170 3170 3171 3171 3172 3173 3173 3173 3174 3175 3175 3175 3175 3176 3176 3176 3176 3176 3175 3175 3175 3175 3175 3175 3176 3176 3176 3176 3176 3177 3176 3175 3175 3175 3174 3174 3173 3173 3173 3172 3172 3171 3171 3170 3169 3168
3125 3126 3128 3130 3131 3133 3134 3135 3137 3139 3140 3142 3144 3145 3146 3148 3149 3151 3152 3153 3154 3155 3156 3158 3159 3160 3161 3162 3162 3163 3164 3164 3165 3165 3166 3166 3167 3167 3168 3168 3168 3169 3169 3170 3170 3171 3172 3172 3172 3173 3174 3174 3175 3175 3175 3176 3176 3176 3176 3176 3176 3175 3175 3175 3175 3175 3175 3176 3176 3176 3176 3176 3176 3175 3175 3174 3173 3173 3172 3172 3171 3171 3170 3170 3169 3169 3168 3167
3123 3125 3126 3128 3130 3131 3133 3134 3136 3137 3139 3140 3142 3144 3146 3147 3148 3150 3151 3152 3153 3154 3155 3157 3158 3159 3160 3161 3162 3162 3163 3163 3164 3164 3165 3165 3166 3166 3166 3166 3167 3168 3169 3169 3169 3170 3171 3171 3172 3173 3172 3173 3174 3175 3175 3176 3175 3175 3175 3176 3175 3175 3175 3175 3175 3175 3175 3175 3176 3176 3175 3175 3175 3174 3174 3173 3173 3172 3172 3171 3170 3170 3170 3169 3168 3168 3167 3166